Location: Arrodets-la-Barthe
(43.0306°N, 0.2829°E)
Time: 13:44:08
(UTC+00:00)

Cosmos 1758 Rocket - Pass Details

Date: 24 October 2021
Orbit: 603 x 635 km, 82.5° (Epoch: 07 December)

Event Time Altitude Azimuth Distance (km) Brightness Sun altitude
Rises 18:15:06 0° 360° (N) 2,866 6.9 -14.0°
Reaches altitude 10° 18:17:29 10° 10° (N) 1,960 6.0 -14.4°
Maximum altitude 18:21:28 34° 76° (ENE) 997 4.1 -15.2°
Enters shadow 18:24:14 17° 133° (SE) 1,544 5.2 -15.7°
